Showing default

3CAT-5/A (TYVAK-0161), 46292

Orbit data source: Space-Track

3CAT-5/A (TYVAK-0161), 46292 is a payload satellite owned by UPC (ES) in SSO that was launched on Thu, 03 Sep 2020 UTC via a VEGA launch vehicle from the French Guiana (FRGUI). Payload-class satellites include a variety of spacecraft equipped with specific instruments for various scientific and technological missions. These include communications satellites like Starlink; space stations such as the ISS; scientific satellites like the Hubble; Earth observation satellites from companies like Planet Labs, Umbra, and HawkEye 360; GPS; miniature CubeSats for education and research; and military/defense satellites.

Loading next visibility...
Identifier
46292, 2020-061W
Orbit
SSO
Country
Flag of ESES / SPN
Related business
Manufacturer
UPC
Mission
Non-operational Amateur Technology
Bus & Motor
CUBESAT 6U, Unknown motor
Mass
~10 kg wet, ~10 kg dry
Launch date (UTC)
2020-09-03 (6 years ago)
Launch vehicle
VEGA
Launch site
French Guiana (FRGUI)
Object type
Payload
Rocket body
Debris
Shape & HBR
Box, Unknown HBR
Radar Cross Section
0.080 m², Medium (>0.1 m² and < 1m²)

Expand to show TLE details & history
Last TLE update: 12 hours ago

TLE from 12 hours ago
0 3CAT-5/A (TYVAK-0161)
1 46292U 20061W   26127.64325983  .00012035  00000-0  25820-3 0  9991
2 46292  97.2427 190.6171 0000461 195.1638 164.9597 15.44867968314765
Epoch: 2026-05-07T15:26Z
TLE epoch observation values (Epoch: 2026-05-07T15:26:17.649Z)
Latitude
-0.00004°
Longitude
93.55711°
Altitude
435.198 km
Speed
7.65 km/s
True Right ascension
12h 42m 28s
True Declination
0° 00' 00"
Sunlit
Object was in full shadow at epoch
Visualization orbit readout
Latitude
Unknown
Longitude
Unknown
Altitude
Unknown
Speed
Unknown
Apparent Right ascension
Unknown
Apparent Declination
Unknown
Sunlit
N/A
Visualization observer readout
Local Sidereal Time
11:40:59
Azimuth
Unknown
Elevation
Unknown
Doppler factor
Unknown
Orbital elements
Apogee altitude
429.006 km
Perigee altitude
428.378 km
Semi-major axis
6,806.829 km
Eccentricity
0.00005
Inclination
97.2427°
RAAN
190.6171°
Arg. of periapsis
195.1638°
True anomaly
164.96107°
Mean anomaly
164.9597°
Eccentric anomaly
164.96039°
Mean motion
3.86479 °/min
Orbital period
93.15 mins
BSTAR
0.0002582
Loading maneuver chart data...
Computing Atmospheric mass density...

Documentation

Showing up to 5 results
|